Regional Weather Roundup
Issued by NWS Jackson, KY

Home | Current Version | Previous Version | Text Only | Print | Product List | Glossary Off
Versions: 1 2 3 4 5 6 7 8 9 10 11 12 13 14 15 16 17 18 19 20 21 22 23 24 25 26 27 28 29 30 31 32 33 34 35 36 37 38 39 40 41 42 43 44 45 46 47 48 49 50

000
ASUS43 KJKL 212210
RWRJKL

EAST KENTUCKY HOURLY WEATHER ROUNDUP
NATIONAL WEATHER SERVICE JACKSON KY
600 PM EDT FRI JUL 21 2017

NOTE: "FAIR" INDICATES FEW OR NO CLOUDS BELOW 12,000 FEET WITH
NO SIGNIFICANT WEATHER AND/OR OBSTRUCTIONS TO VISIBILITY.

* THESE REPORTS ARE NOT UNDER NWS QUALITY CONTROL AND MAY NOT
  REPORT WEATHER SUCH AS PRECIPITATION AND FOG.

KYZ079-080-083-085-087-088-110-112-115-119-120-212300
...EASTERN KENTUCKY...

CITY           SKY/WX    TMP DP  RH WIND       PRES   REMARKS
JACKSON        PTSUNNY   91  72  53 VRB3      30.02S HX  98
LONDON         SUNNY     92  69  47 NW7       30.01F HX  97
SOMERSET*      SUNNY     90  64  43 W7        30.01F HX  91
MONTICELLO*    SUNNY     92  76  59 W13       30.02F HX 104
WILLIAMSBURG*  CLEAR     91  70  49 SW5       30.01F HX  97
MIDDLESBORO*   SUNNY     92  71  50 CALM      30.02S HX  99
HARLAN APT*    CLEAR     91  66  43 SW3       30.03F HX  94
PIKE CO APT*     N/A     88  73  61 NW6       30.02S HX  95
BIG SANDY APT* CLEAR     91  73  56 SW5       30.01S HX  98
MOREHEAD APT*  CLOUDY    91  70  49 W6        30.00F HX  97
ASHLAND*         N/A    N/A N/A N/A MISG        N/A
$$

KYZ035-036-041-042-044-050-067-078-099-212300
...CENTRAL KENTUCKY...

CITY           SKY/WX    TMP DP  RH WIND       PRES   REMARKS
MT STERLING*   SUNNY     91  72  52 W6        30.01S HX  98
FLEMING/MASON* SUNNY     89  76  66 NE3       29.99F HX 100
DANVILLE*      SUNNY     93  72  49 W7        30.01F HX 100
LEXINGTON      MOSUNNY   93  70  46 W12       29.99F HX  99
FRANKFORT      MOSUNNY   92  73  53 W7        29.96F HX 100
LOUISVILLE     MOSUNNY   96  73  47 NW9       29.95F HX 105
LEBANON*         N/A     93  72  49 S7        29.99F HX 100
GLASGOW*       MOSUNNY   94  70  46 SW3       29.98S HX 100
BOWLING GREEN  SUNNY     95  71  45 SW6       29.96F HX 102
$$

KYZ091>093-OHZ055-061-077-WVZ005-015-034-035-042-212300
...SOUTHERN OHIO/WEST VIRGINIA...

CITY           SKY/WX    TMP DP  RH WIND       PRES   REMARKS
COVINGTON      MOSUNNY   90  79  70 CALM      29.97F HX 106
COLUMBUS       CLOUDY    83  73  72 SW6       29.97F
DAYTON         PTSUNNY   82  70  66 N6        30.00F
WILMINGTON     SUNNY     85  73  67 SW5       29.99F HX  91
HUNTINGTON     CLOUDY    85  71  63 N3        29.99F HX  90
CHARLESTON     PTSUNNY   83  68  60 W6        30.01R
PINEVILLE*     MOSUNNY   89  71  56 MISG      30.09S HX  95
BECKLEY        SUNNY     84  62  47 NW9       30.09S
BLUEFIELD      MOSUNNY   83  67  58 VRB6      30.11F
LOGAN CO APT*    N/A     86  72  62 CALM      30.04R HX  92
$$

VAZ002-007-008-TNZ017-027-036-066-071-212300
...SOUTHWEST VIRGINIA/EAST TENNESSEE...

CITY           SKY/WX    TMP DP  RH WIND       PRES   REMARKS
WISE*          MOSUNNY   88  63  42 SW10      30.11F
JONESVILLE*      N/A     93  66  40 W3        30.04S HX  96
ABINGDON*      SUNNY     89  71  55 SW8       30.07F HX  94
BRISTOL        MOSUNNY   89  69  51 S7        30.03F HX  93
MORRISTOWN*    CLEAR     91  68  46 N8        30.01S HX  95
SEVIERVILLE*   CLEAR     93  63  36 CALM      29.98F HX  94
KNOXVILLE      PTSUNNY   94  64  37 E6        29.98F HX  95
LAFOLLETTE*    CLEAR     91  73  55 CALM      30.05S HX 100
OAK RIDGE      MOSUNNY   94  69  44 N3        30.01F HX  99
CROSSVILLE     SUNNY     89  67  47 W3        30.07S HX  92
NASHVILLE      PTSUNNY   95  68  41 VRB3      29.98F HX  99
$$

...KEY TO REMARKS...
VSB - VISIBILITY IN MILES
WCI - WIND CHILL INDEX
HX  - HEAT INDEX

$$



USA.gov is the U.S. government's official web portal to all federal, state and local government web resources and services.